Вернуться в каталог

CZ-6A DEB

АктивенPO
NORAD 60645·DEBRIS·🇨🇳 China

Запущен Aug 6, 2024 с Taiyuan Satellite Launch Center

Loading…

Ближайшие Пролёты (ближайшие 24 часа)

TLE

СвежийSource: Space-Track

Эпоха: Sep 14, 2026, 23:25 UTC

1 60645U 24140AW  26257.97592288  .00000155  00000-0  14889-3 0  9998
2 60645  88.7530 257.4555 0504173 205.8626 151.6512 13.31271028102143

Отслеживайте CZ-6A DEB в реальном времени с AllMySat

Download on the App Store